Location: The Rolnick Observatory
(41.1711°N, 73.3275°W)
Time: 15:19:33
(UTC-04:00)

N. Korean satellite - Pass Details

Date: 20 February 2019
Orbit: 455 x 511 km, 97.2° (Epoch: 18 March)

Event Time Altitude Azimuth Distance (km) Brightness Sun altitude
Rises 18:01:08 0° 196° (SSW) 2,591 10.6 -6.0°
Reaches altitude 10° 18:03:32 10° 211° (SSW) 1,704 9.9 -6.4°
Maximum altitude 18:06:31 23° 265° (W) 1,098 9.6 -7.0°
Drops below altitude 10° 18:09:28 10° 319° (NW) 1,693 9.8 -7.5°
Sets 18:11:51 0° 334° (NNW) 2,570 10.5 -8.0°
